VK4RM-13 Weather Reports


time (UTC)temp
F
wind
direction
speed
knots
gust
knots
rain 1hr
in
rain 24hr
in
rain mn
in
humidity
%
barometer
mb
20260508213629 57 316 0.0 1.7 0.00 0.00 0.00 79 1000.3
20260508212629 55 316 0.0 1.7 0.00 0.00 0.00 80 1000.2
20260508211629 53 27 0.0 0.0 0.00 0.00 0.00 81 1000.2
20260508210629 52 27 0.0 0.0 0.00 0.00 0.00 82 1000.1
20260508205629 52 27 0.0 0.0 0.00 0.00 0.00 81 1000.0
20260508204629 52 28 0.0 0.0 0.00 0.00 0.00 80 999.9
20260508203629 51 28 0.0 0.0 0.00 0.00 0.00 79 999.7
20260508202629 51 28 0.0 0.0 0.00 0.00 0.00 79 999.6
20260508201629 51 28 0.0 0.0 0.00 0.00 0.00 79 999.5
20260508200629 52 28 0.0 0.0 0.00 0.00 0.00 78 999.5
20260508195629 52 28 0.0 0.0 0.00 0.00 0.00 79 999.4
20260508194629 52 28 0.0 0.0 0.00 0.00 0.00 78 999.2
20260508193629 52 28 0.0 0.0 0.00 0.00 0.00 77 999.0
20260508192629 52 28 0.0 0.0 0.00 0.00 0.00 75 998.9
20260508191629 53 28 0.0 0.0 0.00 0.00 0.00 75 998.9
20260508190629 53 28 0.0 0.0 0.00 0.00 0.00 73 998.7
20260508185629 54 28 0.0 0.0 0.00 0.00 0.00 72 998.6
20260508184629 54 28 0.0 0.0 0.00 0.00 0.00 70 998.7
20260508183629 55 96 0.0 0.0 0.00 0.00 0.00 68 998.6
20260508182629 54 96 1.7 3.5 0.00 0.00 0.00 62 998.6
20260508181629 52 13 0.0 1.7 0.00 0.00 0.00 73 998.4
20260508180629 52 32 0.0 0.0 0.00 0.00 0.00 77 998.4
20260508175629 52 32 0.0 0.0 0.00 0.00 0.00 77 998.4
20260508174629 52 32 0.0 0.0 0.00 0.00 0.00 80 998.4
20260508173629 52 32 0.0 0.0 0.00 0.00 0.00 79 998.2
20260508171629 52 32 0.0 0.0 0.00 0.00 0.00 79 998.4
20260508170629 51 32 0.0 0.0 0.00 0.00 0.00 79 998.5
20260508165630 51 32 0.0 0.0 0.00 0.00 0.00 80 998.5
20260508164629 51 32 0.0 0.0 0.00 0.00 0.00 82 998.6
20260508163629 51 32 0.0 0.0 0.00 0.00 0.00 83 998.4
20260508162629 51 38 0.0 0.0 0.00 0.00 0.00 83 998.5
20260508161629 51 37 0.0 0.0 0.00 0.00 0.00 83 998.5
20260508160629 51 38 0.0 0.0 0.00 0.00 0.00 82 998.7
20260508155629 51 53 0.0 0.0 0.00 0.00 0.00 83 998.7
20260508154629 51 53 0.0 0.0 0.00 0.00 0.00 83 998.8
20260508153629 52 53 0.0 0.0 0.00 0.00 0.00 83 998.9
20260508152629 52 53 0.0 0.0 0.00 0.00 0.00 83 998.9
20260508151629 52 53 0.0 0.0 0.00 0.00 0.00 83 998.9
20260508150629 53 53 0.0 0.0 0.00 0.00 0.00 83 998.9
20260508145629 53 53 0.0 0.0 0.00 0.00 0.00 82 999.0
20260508144629 53 53 0.0 0.0 0.00 0.00 0.00 82 999.0
20260508143629 53 53 0.0 0.0 0.00 0.00 0.00 83 999.0
20260508142629 53 53 0.0 0.0 0.00 0.00 0.00 83 999.1
20260508141630 54 53 0.0 0.0 0.00 0.00 0.00 83 999.1
20260508140629 54 53 0.0 0.0 0.00 0.00 0.00 83 999.1
20260508135630 54 53 0.0 0.0 0.00 0.01 0.00 82 999.1
20260508134629 54 53 0.0 0.0 0.00 0.01 0.00 82 999.2
20260508133629 55 65 0.0 0.0 0.00 0.01 0.00 82 999.3
20260508132630 55 65 0.0 0.0 0.00 0.01 0.00 81 999.2
20260508131629 55 65 0.0 0.0 0.00 0.01 0.00 81 999.3
20260508130629 56 65 0.0 0.0 0.00 0.01 0.00 81 999.3
20260508125629 56 65 0.0 0.0 0.00 0.01 0.00 79 999.2
20260508124629 57 65 0.0 0.0 0.00 0.01 0.00 79 999.3
20260508123629 58 65 0.0 0.0 0.00 0.01 0.00 77 999.2
20260508122630 59 65 0.0 0.0 0.00 0.01 0.00 76 999.3
20260508121630 60 65 0.0 0.0 0.00 0.01 0.00 73 999.4
20260508120630 61 66 0.0 0.0 0.00 0.01 0.00 70 999.4
20260508115630 61 65 0.9 1.7 0.00 0.01 0.00 52 999.4
20260508114630 60 113 0.9 2.6 0.00 0.01 0.00 57 999.5
20260508113630 59 101 0.0 3.5 0.00 0.01 0.00 65 999.6
20260508112630 59 74 0.0 0.0 0.00 0.01 0.00 73 999.6
20260508111630 58 74 0.0 1.7 0.00 0.01 0.00 85 999.7
20260508110630 57 70 0.0 1.7 0.00 0.01 0.00 85 999.8
20260508104630 58 38 0.0 0.0 0.00 0.01 0.00 85 999.6
20260508103631 58 38 0.0 0.0 0.00 0.01 0.00 85 999.6
20260508102631 58 38 0.0 0.0 0.00 0.01 0.00 84 999.4
20260508101630 59 38 0.0 0.0 0.00 0.01 0.00 84 999.3
20260508100630 59 38 0.0 0.0 0.00 0.01 0.00 83 999.1
20260508095630 59 38 0.0 0.0 0.00 0.01 0.00 82 999.1
20260508094630 60 38 0.0 0.0 0.00 0.01 0.00 82 998.9
20260508093630 60 38 0.0 0.0 0.00 0.01 0.00 80 998.8
20260508091630 61 38 0.0 0.0 0.00 0.01 0.00 78 998.7
20260508090631 61 38 0.0 0.0 0.00 0.01 0.00 78 998.5
20260508085630 62 38 0.0 0.0 0.00 0.01 0.00 77 998.4
20260508084630 62 38 0.0 0.0 0.00 0.01 0.00 74 998.1
20260508083630 63 38 0.0 0.0 0.00 0.01 0.00 76 998.1
20260508082630 64 38 0.0 0.0 0.00 0.01 0.00 72 997.8
20260508081630 64 38 0.0 0.0 0.00 0.01 0.00 74 997.7
20260508080630 65 38 0.0 0.0 0.00 0.01 0.00 70 997.5
20260508075630 66 38 0.0 0.0 0.00 0.01 0.00 71 997.3
20260508074632 66 38 0.0 0.0 0.00 0.01 0.00 70 997.1
20260508072630 67 38 0.0 0.0 0.00 0.01 0.00 71 996.9
20260508071630 68 38 0.0 0.0 0.00 0.01 0.00 69 996.7
20260508070631 70 38 0.0 0.0 0.00 0.01 0.00 67 996.6
20260508065630 71 38 0.0 0.0 0.00 0.01 0.00 65 996.4
20260508063630 74 66 0.0 0.0 0.00 0.01 0.00 51 996.1
20260508062630 77 66 0.0 0.0 0.00 0.01 0.01 43 996.1
20260508061630 78 94 0.0 0.9 0.00 0.01 0.01 41 996.1
20260508060630 79 57 0.0 1.7 0.00 0.01 0.01 40 995.9
20260508055630 79 81 0.0 0.9 0.00 0.01 0.01 37 995.8
20260508054630 79 67 0.0 1.7 0.00 0.01 0.01 39 995.8
20260508053630 78 93 0.9 4.3 0.00 0.01 0.01 39 995.8
20260508052630 78 140 1.7 6.1 0.00 0.01 0.01 42 995.8
20260508051630 79 69 0.9 5.2 0.00 0.01 0.01 40 995.7
20260508050632 79 96 0.9 4.3 0.00 0.01 0.01 40 995.7
20260508045630 79 55 0.9 2.6 0.00 0.01 0.01 40 995.6
20260508044630 79 119 0.0 5.2 0.00 0.01 0.01 41 995.6
20260508043631 78 5 0.9 4.3 0.00 0.01 0.01 43 995.6
20260508042631 79 119 1.7 4.3 0.00 0.01 0.01 45 995.7
20260508041631 79 89 2.6 7.0 0.00 0.01 0.01 42 995.9
20260508040630 81 65 0.0 7.8 0.00 0.01 0.01 42 996.0
20260508035630 80 192 0.9 5.2 0.00 0.04 0.01 41 996.1
20260508034630 81 350 0.9 5.2 0.00 0.04 0.01 41 996.2
20260508033630 80 339 0.9 4.3 0.00 0.04 0.01 44 996.3
20260508032630 79 5 1.7 4.3 0.00 0.04 0.01 45 996.4
20260508031631 79 113 2.6 7.8 0.00 0.04 0.01 43 996.5
20260508030630 79 90 1.7 7.0 0.00 0.04 0.01 45 996.7
20260508025631 79 49 0.9 5.2 0.00 0.04 0.01 46 996.8
20260508024631 78 158 0.9 6.1 0.00 0.04 0.01 43 997.1
20260508023631 79 333 1.7 4.3 0.00 0.04 0.01 43 997.2
20260508022631 78 146 0.0 5.2 0.00 0.04 0.01 44 997.4
20260508021631 77 0 0.9 4.3 0.00 0.04 0.01 45 997.5
20260508020631 77 332 0.9 5.2 0.00 0.04 0.01 46 997.7
20260508015631 76 206 1.7 6.1 0.00 0.04 0.01 46 997.9
20260508014631 75 340 2.6 7.0 0.00 0.04 0.01 48 998.1
20260508013631 75 132 1.7 9.6 0.00 0.04 0.01 46 998.2
20260508012631 76 9 0.9 0.9 0.00 0.04 0.01 47 998.3
20260508011631 76 146 1.7 5.2 0.00 0.04 0.01 48 998.6
20260508010631 75 95 0.9 3.5 0.00 0.04 0.01 48 998.8
20260508005634 75 98 2.6 7.0 0.00 0.04 0.01 48 998.9
20260508004631 75 338 1.7 5.2 0.00 0.04 0.01 48 998.9
20260508003631 74 121 0.9 5.2 0.00 0.04 0.01 49 999.0
20260508002631 73 38 0.0 3.5 0.00 0.04 0.01 50 999.0
20260508001631 73 351 0.9 5.2 0.00 0.04 0.01 48 999.2
20260508000631 73 293 0.0 0.9 0.00 0.04 0.01 50 999.3
20260507235631 72 331 1.7 5.2 0.00 0.04 0.01 48 999.2
20260507234631 71 346 1.7 6.1 0.00 0.04 0.01 50 999.2
20260507233631 71 350 0.9 5.2 0.00 0.04 0.01 49 999.2
20260507232631 72 295 0.9 6.1 0.00 0.04 0.01 49 999.4
20260507231632 71 336 0.9 3.5 0.00 0.04 0.01 50 999.3
20260507230631 70 302 0.9 1.7 0.00 0.04 0.01 51 999.2
20260507225631 70 288 0.0 6.1 0.00 0.04 0.01 51 999.2
20260507224631 69 333 0.0 1.7 0.00 0.04 0.01 52 999.2
20260507223631 68 79 0.9 4.3 0.00 0.04 0.01 52 999.1
20260507221631 67 332 0.0 1.7 0.00 0.04 0.01 57 999.0
20260507220631 66 336 0.9 6.1 0.00 0.04 0.01 55 999.0
20260507215631 66 0 0.0 0.0 0.00 0.04 0.01 58 998.9
20260507214631 65 0 0.0 1.7 0.00 0.04 0.01 64 998.8